Home   Weather   Calgary   Past weeks
Flag for Canada

Past Weather in Calgary, Alberta, Canada — Yesterday and Last 2 Weeks

Now
19 °F

Passing clouds.


Feels Like: 19 °F
Forecast: 17 / -4 °F
Wind: 2 mph from North

Location: Calgary International

Current Time: Feb 22, 2019 at 8:40:31 pm

Latest Report: Feb 22, 2019 at 8:00 pm


Visibility: 15 mi

Pressure: 29.84 "Hg (26.03 "Hg at 1063m altitude)

Humidity: 53%

Dew Point: 5 °F

Location of CalgaryLocation

Past Weather in Calgary — Graph

°F

Calgary Temperature Yesterday

Maximum temperature yesterday: 16 °F (at 3:00 pm)
Minimum temperature yesterday: 0 °F (at 8:00 am)
Average temperature yesterday: 6 °F

High & Low Weather Summary for the Past Weeks

 TemperatureHumidityPressure
High32 °F (Feb 22, 1:00 pm)86% (Feb 19, 11:06 pm)30.84 "Hg (Feb 19, 11:06 pm)
Low-20 °F (Feb 10, 3:00 am)33% (Feb 22, 7:00 am)29.75 "Hg (Feb 20, 1:00 am)
Average0 °F72%30.18 "Hg
* Reported Feb 7 7:00 pm — Feb 22 7:00 pm, Calgary. Weather by CustomWeather, © 2019

Note: Actual official high and low records may vary slightly from our data, if they occured in-between our weather recording intervals... More about our weather records

Advertising

Calgary Weather History for the Previous 24 Hours

Scroll right to see more
 ConditionsComfort  
Time TempWeatherWind HumidityBarometerVisibility
7:00 pm
Fri, Feb 22
25 °FPassing clouds.2 mph46%29.82 "Hg15 mi
6:00 pm21 °FScattered clouds.7 mph63%29.82 "Hg40 mi
5:00 pm28 °FScattered clouds.7 mph43%29.80 "Hg40 mi
4:00 pm28 °FBroken clouds.8 mph51%29.81 "Hg40 mi
3:00 pm32 °FPartly sunny.10 mph34%29.80 "Hg40 mi
2:00 pm32 °FBroken clouds.14 mph34%29.78 "Hg40 mi
1:00 pm32 °FScattered clouds.15 mph37%29.79 "Hg40 mi
12:00 pm30 °FBroken clouds.17 mph34%29.80 "Hg40 mi
11:00 am28 °FPartly sunny.16 mph37%29.79 "Hg40 mi
10:00 am27 °FBroken clouds.15 mph36%29.79 "Hg40 mi
9:00 am27 °FBroken clouds.20 mph33%29.79 "Hg40 mi
8:00 am25 °FPartly sunny.16 mph36%29.79 "Hg40 mi
7:00 am25 °FPassing clouds.16 mph33%29.79 "Hg15 mi
6:00 am14 °FPassing clouds.2 mph52%29.82 "Hg15 mi
5:00 am10 °FPassing clouds.5 mph61%29.83 "Hg15 mi
4:00 am9 °FPassing clouds.6 mph66%29.85 "Hg15 mi
3:00 am3 °FPassing clouds.6 mph66%29.90 "Hg15 mi
2:00 am5 °FPassing clouds.7 mph72%29.91 "Hg15 mi
1:00 am5 °FPassing clouds.7 mph72%29.94 "Hg15 mi
12:00 am3 °FPassing clouds.7 mph78%29.98 "Hg15 mi
11:00 pm
Thu, Feb 21
3 °FPassing clouds.7 mph78%30.02 "Hg15 mi
10:00 pm3 °FPassing clouds.7 mph78%30.06 "Hg15 mi
9:00 pm5 °FClear.8 mph72%30.09 "Hg15 mi
8:00 pm5 °FClear.9 mph72%30.11 "Hg15 mi
Weather by CustomWeather, © 2019

See weather overview